This is the latest recevied weather packets stored in our database for station/object YO3FVR-WX. If no packets are shown the sender has not sent any weather packets the latest 10 day(s).
| Time | Temp. | Humidity | Pressure | Rain* | Wind** | Luminosity | Snow |
|---|---|---|---|---|---|---|---|
| 1787837884 | 27.78° C | 57% | 1013.2 hPa | 0 mm | - | - | - |
| 1787837284 | 27.78° C | 56% | 1013.5 hPa | 0 mm | - | - | - |
| 1787836654 | 27.78° C | 56% | 1013.5 hPa | 0 mm | - | - | - |
| 1787836054 | 27.78° C | 56% | 1013.5 hPa | 0 mm | - | - | - |
| 1787835424 | 27.78° C | 56% | 1013.6 hPa | 0 mm | - | - | - |
| 1787834794 | 27.22° C | 57% | 1013.6 hPa | 0 mm | - | - | - |
| 1787834164 | 27.22° C | 58% | 1013.6 hPa | 0 mm | - | - | - |
| 1787833534 | 26.67° C | 59% | 1013.5 hPa | 0 mm | - | - | - |
| 1787832904 | 26.67° C | 59% | 1013.7 hPa | 0 mm | - | - | - |
| 1787832274 | 26.67° C | 58% | 1013.7 hPa | 0 mm | - | - | - |
| 1787831644 | 27.22° C | 58% | 1013.8 hPa | 0 mm | - | - | - |
| 1787831014 | 27.22° C | 58% | 1014 hPa | 0 mm | - | - | - |
| 1787830414 | 27.22° C | 58% | 1014 hPa | 0 mm | - | - | - |
| 1787829814 | 27.22° C | 59% | 1014.1 hPa | 0 mm | - | - | - |
| 1787829184 | 26.67° C | 60% | 1014.4 hPa | 0 mm | - | - | - |
| 1787828554 | 26.67° C | 60% | 1014.5 hPa | 0 mm | - | - | - |
| 1787827954 | 26.67° C | 60% | 1014.7 hPa | 0 mm | - | - | - |
| 1787827324 | 26.67° C | 60% | 1014.7 hPa | 0 mm | - | - | - |
| 1787826724 | 26.67° C | 61% | 1014.7 hPa | 0 mm | - | - | - |
| 1787826094 | 26.67° C | 61% | 1014.8 hPa | 0 mm | - | - | - |
| 1787825494 | 26.11° C | 63% | 1014.8 hPa | 0 mm | - | - | - |
| 1787824864 | 25.56° C | 63% | 1014.9 hPa | 0 mm | - | - | - |
| 1787824234 | 25.56° C | 63% | 1014.9 hPa | 0 mm | - | - | - |
| 1787823604 | 25.56° C | 64% | 1014.9 hPa | 0 mm | - | - | - |
| 1787822974 | 25° C | 65% | 1014.9 hPa | 0 mm | - | - | - |
* Rain latest hour (hover to see other rain measurements)
** Current wind speed in m/s (hover to see current wind gust speed)